KC2DUX Weather Reports


Display with metric or nautical units.
time (UTC)temp
F
wind
direction
speed
MPH
gust
MPH
rain 1hr
in
rain 24hr
in
rain mn
in
humidity
%
barometer
mb
20260831113012 71 55 0.0 0.0 0.00 0.06 0.06 94 1019.0
20260831112513 71 55 0.0 1.0 0.00 0.06 0.06 94 1018.9
20260831112009 71 55 0.0 1.0 0.00 0.06 0.06 94 1018.9
20260831111509 71 55 0.0 0.0 0.00 0.06 0.06 94 1018.8
20260831111007 71 55 0.0 1.0 0.00 0.06 0.06 93 1018.8
20260831110508 71 55 0.0 1.0 0.00 0.06 0.06 93 1018.7
20260831110006 71 55 0.0 1.0 0.00 0.06 0.06 93 1018.6
20260831105508 71 55 0.0 1.0 0.00 0.06 0.06 93 1018.6
20260831105010 71 95 0.0 1.0 0.00 0.06 0.06 93 1018.6
20260831104515 71 94 0.0 0.0 0.00 0.06 0.06 93 1018.6
20260831104006 71 94 0.0 1.0 0.00 0.06 0.06 93 1018.6
20260831103504 71 94 0.0 1.0 0.00 0.06 0.06 93 1018.5
20260831103005 71 94 0.0 1.0 0.00 0.06 0.06 93 1018.6
20260831102506 71 95 0.0 1.0 0.00 0.06 0.06 93 1018.5
20260831102005 71 94 0.0 1.0 0.00 0.06 0.06 93 1018.5
20260831101506 71 137 0.0 1.0 0.00 0.06 0.06 93 1018.5
20260831101003 71 137 0.0 1.0 0.00 0.06 0.06 93 1018.4
20260831100502 71 137 0.0 1.0 0.00 0.06 0.06 93 1018.3
20260831100001 71 137 0.0 1.0 0.00 0.06 0.06 93 1018.2
20260831095505 71 137 0.0 1.0 0.00 0.06 0.06 93 1018.1
20260831095001 71 137 0.0 1.0 0.00 0.06 0.06 93 1017.9
20260831094503 71 117 0.0 2.0 0.00 0.06 0.06 93 1017.8
20260831094001 71 117 0.0 2.0 0.00 0.06 0.06 93 1017.7
20260831093602 71 167 0.0 1.0 0.00 0.06 0.06 93 1017.7
20260831093101 71 178 0.0 1.0 0.00 0.06 0.06 93 1017.8
20260831092600 71 178 0.0 1.0 0.00 0.06 0.06 93 1017.8
20260831092059 71 178 0.0 2.0 0.00 0.06 0.06 93 1017.8
20260831091603 71 178 0.0 2.0 0.00 0.06 0.06 93 1017.8
20260831091058 71 207 0.0 2.0 0.00 0.06 0.06 93 1017.8
20260831090558 71 221 1.0 2.0 0.00 0.06 0.06 93 1017.7
20260831090058 71 207 0.0 2.0 0.00 0.06 0.06 93 1017.7
20260831085558 71 207 0.0 2.0 0.00 0.06 0.06 93 1017.6
20260831085057 71 207 0.0 1.0 0.00 0.06 0.06 92 1017.6
20260831084634 71 207 0.0 1.0 0.00 0.06 0.06 92 1017.7
20260831084055 71 207 0.0 1.0 0.01 0.06 0.06 92 1017.7
20260831083555 71 207 0.0 2.0 0.02 0.06 0.06 92 1017.7
20260831083056 71 207 0.0 3.0 0.02 0.06 0.06 92 1017.8
20260831082555 71 212 1.0 3.0 0.03 0.06 0.06 92 1017.8
20260831082055 71 148 0.0 2.0 0.03 0.06 0.06 92 1017.8
20260831081555 71 110 0.0 3.0 0.03 0.06 0.06 91 1017.8
20260831081056 72 72 0.0 3.0 0.03 0.06 0.06 91 1017.8
20260831080554 72 98 0.0 4.0 0.03 0.06 0.06 91 1017.8
20260831080105 72 96 1.0 4.0 0.03 0.06 0.06 91 1017.9
20260831075551 72 117 1.0 4.0 0.03 0.06 0.06 91 1017.8
20260831075051 72 74 0.0 3.0 0.04 0.06 0.06 91 1017.8
20260831074559 73 88 1.0 3.0 0.05 0.05 0.05 90 1017.9
20260831074050 73 78 0.0 4.0 0.05 0.05 0.05 90 1018.1
20260831073549 73 327 0.0 4.0 0.04 0.04 0.04 90 1018.1
20260831073048 73 80 0.0 3.0 0.04 0.04 0.04 90 1018.1
20260831072550 74 121 1.0 3.0 0.03 0.03 0.03 89 1018.2
20260831072046 74 216 1.0 3.0 0.03 0.03 0.03 89 1018.1
20260831071552 74 294 0.0 4.0 0.03 0.03 0.03 89 1018.1
20260831071045 75 118 1.0 4.0 0.03 0.03 0.03 90 1018.0
20260831070543 75 113 1.0 2.0 0.03 0.03 0.03 89 1017.9
20260831070043 75 113 0.0 1.0 0.03 0.03 0.03 89 1017.9
20260831065541 75 113 0.0 1.0 0.03 0.03 0.03 88 1017.9
20260831065042 75 113 0.0 1.0 0.02 0.02 0.02 88 1018.0
20260831064541 75 113 0.0 2.0 0.00 0.00 0.00 87 1018.1
20260831064040 75 113 0.0 3.0 0.00 0.00 0.00 87 1018.2
20260831063539 76 113 0.0 3.0 0.00 0.00 0.00 86 1018.3
20260831063038 76 56 0.0 1.0 0.00 0.00 0.00 87 1018.3
20260831062539 76 15 0.0 1.0 0.00 0.00 0.00 88 1018.3
20260831062038 76 332 0.0 2.0 0.00 0.00 0.00 88 1018.2
20260831061539 76 313 0.0 3.0 0.00 0.00 0.00 88 1018.3
20260831061034 76 281 1.0 4.0 0.00 0.00 0.00 88 1018.3
20260831060533 76 293 2.0 5.0 0.00 0.00 0.00 88 1018.3
20260831060039 76 215 1.0 5.0 0.00 0.00 0.00 88 1018.3
20260831055532 76 207 2.0 5.0 0.00 0.00 0.00 88 1018.3
20260831055032 76 234 2.0 5.0 0.00 0.00 0.00 88 1018.3
20260831054532 76 242 1.0 5.0 0.00 0.00 0.00 87 1018.3
20260831054033 76 250 2.0 6.0 0.00 0.00 0.00 87 1018.3
20260831053530 76 250 3.0 6.0 0.00 0.00 0.00 87 1018.3
20260831053035 76 242 1.0 7.0 0.00 0.00 0.00 87 1018.3
20260831052529 76 286 3.0 7.0 0.00 0.00 0.00 87 1018.3
20260831052029 76 258 2.0 6.0 0.00 0.00 0.00 87 1018.3
20260831051528 76 248 2.0 7.0 0.00 0.00 0.00 87 1018.2
20260831051028 76 246 2.0 9.0 0.00 0.00 0.00 86 1018.1
20260831050527 76 218 3.0 8.0 0.00 0.00 0.00 86 1018.1
20260831050031 76 200 2.0 8.0 0.00 0.00 0.00 86 1018.2
20260831045527 76 227 3.0 6.0 0.00 0.00 0.00 86 1018.0
20260831045029 76 233 3.0 7.0 0.00 0.00 0.00 86 1018.0
20260831044527 76 213 3.0 7.0 0.00 0.00 0.00 86 1018.1
20260831044026 76 237 3.0 9.0 0.00 0.00 0.00 86 1018.2
20260831043525 76 257 3.0 9.0 0.00 0.00 0.00 86 1018.2
20260831043034 76 238 3.0 7.0 0.00 0.00 0.00 86 1018.3
20260831042527 76 275 2.0 7.0 0.00 0.00 0.00 86 1018.2
20260831042023 76 254 1.0 7.0 0.00 0.00 0.00 86 1018.3
20260831041524 76 282 1.0 5.0 0.00 0.00 0.00 87 1018.3
20260831041022 76 234 1.0 5.0 0.00 0.00 0.00 86 1018.3
20260831040522 76 231 1.0 6.0 0.00 0.00 0.00 86 1018.3
20260831040021 76 272 1.0 5.0 0.00 0.00 0.00 86 1018.3
20260831035519 76 223 1.0 4.0 0.00 0.00 0.00 86 1018.3
20260831035019 76 221 1.0 7.0 0.00 0.00 0.00 86 1018.3
20260831034520 76 235 3.0 7.0 0.00 0.00 0.00 85 1018.4
20260831034019 76 220 2.0 5.0 0.00 0.00 0.00 85 1018.4
20260831033522 76 213 1.0 4.0 0.00 0.00 0.00 85 1018.4
20260831033020 76 231 2.0 4.0 0.00 0.00 0.00 85 1018.4
20260831032520 75 223 2.0 4.0 0.00 0.00 0.00 85 1018.4
20260831032018 75 225 1.0 4.0 0.00 0.00 0.00 86 1018.4
20260831031518 75 250 1.0 4.0 0.00 0.00 0.00 87 1018.4
20260831031016 75 214 1.0 3.0 0.00 0.00 0.00 88 1018.5
20260831030515 75 211 0.0 2.0 0.00 0.00 0.00 87 1018.5
20260831030015 75 265 0.0 2.0 0.00 0.00 0.00 87 1018.5
20260831025515 75 207 1.0 2.0 0.00 0.00 0.00 87 1018.5
20260831025015 75 200 1.0 2.0 0.00 0.00 0.00 87 1018.5
20260831024522 75 200 0.0 4.0 0.00 0.00 0.00 87 1018.6
20260831024014 75 213 1.0 4.0 0.00 0.00 0.00 87 1018.7
20260831023514 75 220 1.0 3.0 0.00 0.00 0.00 87 1018.6
20260831023012 75 221 1.0 3.0 0.00 0.00 0.00 87 1018.6
20260831022512 75 205 0.0 2.0 0.00 0.00 0.00 86 1018.8
20260831022011 75 204 0.0 2.0 0.00 0.00 0.00 86 1018.8
20260831021512 76 204 0.0 2.0 0.00 0.00 0.00 85 1018.9
20260831021010 76 244 0.0 3.0 0.00 0.00 0.00 85 1018.9
20260831020509 76 223 0.0 3.0 0.00 0.00 0.00 85 1018.8
20260831020009 76 211 1.0 4.0 0.00 0.00 0.00 85 1018.8
20260831015510 76 217 2.0 6.0 0.00 0.00 0.00 85 1018.8
20260831015008 76 230 2.0 6.0 0.00 0.00 0.00 85 1018.8
20260831014509 76 232 2.0 5.0 0.00 0.00 0.00 85 1018.7
20260831014007 76 215 2.0 5.0 0.00 0.00 0.00 86 1018.7
20260831013506 76 240 2.0 6.0 0.00 0.00 0.00 86 1018.8
20260831013006 76 219 3.0 7.0 0.00 0.00 0.00 85 1018.9
20260831012505 76 231 3.0 7.0 0.00 0.00 0.00 85 1018.9
20260831012005 76 257 2.0 6.0 0.00 0.00 0.00 85 1018.9
20260831011510 76 226 3.0 7.0 0.00 0.00 0.00 85 1018.9
20260831011002 76 238 3.0 7.0 0.00 0.00 0.00 85 1018.9
20260831010501 76 214 4.0 7.0 0.00 0.00 0.00 85 1018.8
20260831010112 76 236 3.0 9.0 0.00 0.00 0.00 85 1018.8
20260831005605 76 204 6.0 9.0 0.00 0.00 0.00 85 1018.7
20260831005059 76 183 5.0 12.0 0.00 0.00 0.00 85 1018.7
20260831004606 76 206 4.0 10.0 0.00 0.00 0.00 85 1018.7
20260831004059 76 211 5.0 10.0 0.00 0.00 0.00 85 1018.6
20260831003558 76 234 5.0 12.0 0.00 0.00 0.00 85 1018.5
20260831003108 76 213 5.0 11.0 0.00 0.00 0.00 85 1018.4
20260831002557 76 215 5.0 12.0 0.00 0.00 0.00 85 1018.4
20260831002056 76 210 5.0 12.0 0.00 0.00 0.00 85 1018.4
20260831001558 76 225 5.0 10.0 0.00 0.00 0.00 84 1018.4
20260831001056 76 229 5.0 10.0 0.00 0.00 0.00 84 1018.5
20260831000556 76 203 6.0 10.0 0.00 0.00 0.00 84 1018.5
20260831000056 76 211 3.0 9.0 0.00 0.00 0.00 84 1018.4
20260830235556 76 196 5.0 9.0 0.00 0.00 0.00 83 1018.4
20260830235056 76 229 3.0 11.0 0.00 0.00 0.00 83 1018.3
20260830234605 77 177 5.0 9.0 0.00 0.00 0.00 83 1018.3
20260830234055 77 224 4.0 8.0 0.00 0.00 0.00 83 1018.3
20260830233556 77 186 4.0 8.0 0.00 0.00 0.00 82 1018.4
20260830233055 77 213 4.0 8.0 0.00 0.00 0.00 82 1018.3
20260830232557 77 227 5.0 9.0 0.00 0.00 0.00 82 1018.4
20260830232054 77 238 5.0 9.0 0.00 0.00 0.00 81 1018.4
20260830231602 77 222 4.0 9.0 0.00 0.00 0.00 81 1018.4
20260830231053 78 215 6.0 10.0 0.00 0.00 0.00 80 1018.4
20260830230553 78 232 5.0 10.0 0.00 0.00 0.00 80 1018.4
20260830230053 78 219 5.0 10.0 0.00 0.00 0.00 79 1018.5
20260830225553 78 208 5.0 10.0 0.00 0.00 0.00 79 1018.5
20260830225053 79 213 6.0 12.0 0.00 0.00 0.00 78 1018.6
20260830224605 79 211 4.0 12.0 0.00 0.00 0.00 77 1018.6
20260830224052 79 202 5.0 15.0 0.00 0.00 0.00 77 1018.5
20260830223552 80 215 6.0 15.0 0.00 0.00 0.00 76 1018.4
20260830223052 80 204 5.0 9.0 0.00 0.00 0.00 75 1018.4
20260830222552 81 205 3.0 8.0 0.00 0.00 0.00 74 1018.4
20260830222051 81 227 5.0 9.0 0.00 0.00 0.00 74 1018.3
20260830221551 81 212 5.0 9.0 0.00 0.00 0.00 74 1018.3
20260830221051 81 194 3.0 6.0 0.00 0.00 0.00 74 1018.4
20260830220551 81 245 3.0 7.0 0.00 0.00 0.00 74 1018.3
20260830220056 81 227 2.0 7.0 0.00 0.00 0.00 74 1018.3
20260830215549 81 166 0.0 4.0 0.00 0.00 0.00 73 1018.2
20260830215049 82 158 0.0 7.0 0.00 0.00 0.00 74 1018.2
20260830214549 82 225 0.0 11.0 0.00 0.00 0.00 73 1018.4
20260830214048 82 219 6.0 11.0 0.00 0.00 0.00 73 1018.4
20260830213548 82 234 4.0 10.0 0.00 0.00 0.00 72 1018.3
20260830213049 83 209 3.0 10.0 0.00 0.00 0.00 71 1018.2
20260830212550 83 225 3.0 9.0 0.00 0.00 0.00 71 1018.3
20260830212048 83 225 3.0 9.0 0.00 0.00 0.00 70 1018.2
20260830211547 83 230 4.0 9.0 0.00 0.00 0.00 70 1018.2
20260830211046 83 213 4.0 9.0 0.00 0.00 0.00 70 1018.1
20260830210546 83 200 4.0 12.0 0.00 0.00 0.00 69 1018.1
20260830210057 83 207 7.0 12.0 0.00 0.00 0.00 70 1018.2
20260830205545 84 215 4.0 9.0 0.00 0.00 0.00 68 1018.2
20260830205045 84 215 4.0 9.0 0.00 0.00 0.00 68 1018.3
20260830204547 83 190 4.0 9.0 0.00 0.00 0.00 68 1018.4
20260830204042 83 214 3.0 10.0 0.00 0.00 0.00 67 1018.3
20260830203542 83 242 4.0 10.0 0.00 0.00 0.00 67 1018.4
20260830203041 83 222 4.0 9.0 0.00 0.00 0.00 67 1018.5
20260830202540 84 222 2.0 9.0 0.00 0.00 0.00 65 1018.6
20260830202041 84 198 4.0 9.0 0.00 0.00 0.00 66 1018.7
20260830201539 84 202 3.0 8.0 0.00 0.00 0.00 66 1018.7
20260830201038 83 183 3.0 8.0 0.00 0.00 0.00 68 1018.8
20260830200537 83 220 4.0 8.0 0.00 0.00 0.00 68 1018.9
20260830200050 83 207 3.0 12.0 0.00 0.00 0.00 68 1018.9
20260830195536 83 182 6.0 12.0 0.00 0.00 0.00 68 1018.9
20260830195036 83 219 5.0 14.0 0.00 0.00 0.00 67 1019.0
20260830194545 84 226 5.0 13.0 0.00 0.00 0.00 66 1018.9
20260830194035 83 219 5.0 14.0 0.00 0.00 0.00 67 1018.9
20260830193534 84 198 5.0 14.0 0.00 0.00 0.00 67 1019.0
20260830193035 84 240 6.0 10.0 0.00 0.00 0.00 67 1019.0
20260830192536 84 227 5.0 15.0 0.00 0.00 0.00 66 1019.1
20260830192034 83 217 5.0 15.0 0.00 0.00 0.00 65 1019.0
20260830191537 84 219 6.0 12.0 0.00 0.00 0.00 65 1019.0
20260830191032 84 238 6.0 11.0 0.00 0.00 0.00 63 1019.1
20260830190531 84 206 4.0 14.0 0.00 0.00 0.00 61 1019.2
20260830190035 84 250 7.0 14.0 0.00 0.00 0.00 59 1019.3
20260830185533 84 230 8.0 16.0 0.00 0.00 0.00 58 1019.4
20260830185030 84 209 7.0 16.0 0.00 0.00 0.00 59 1019.6
20260830184528 84 223 4.0 12.0 0.00 0.00 0.00 60 1019.7
20260830184026 84 243 7.0 11.0 0.00 0.00 0.00 59 1019.7
20260830183526 84 234 8.0 12.0 0.00 0.00 0.00 59 1019.8
20260830183025 84 234 6.0 14.0 0.00 0.00 0.00 60 1019.8
20260830182525 83 214 8.0 14.0 0.00 0.00 0.00 59 1019.9
20260830182024 84 254 5.0 10.0 0.00 0.00 0.00 60 1020.0
20260830181523 84 219 5.0 10.0 0.00 0.00 0.00 61 1020.0
20260830181022 83 232 5.0 12.0 0.00 0.00 0.00 60 1020.1
20260830180520 83 288 5.0 12.0 0.00 0.00 0.00 62 1020.2
20260830180019 83 270 4.0 10.0 0.00 0.00 0.00 61 1020.2
20260830175520 83 220 4.0 11.0 0.00 0.00 0.00 63 1020.4
20260830175018 82 223 6.0 11.0 0.00 0.00 0.00 62 1020.5
20260830174517 82 244 4.0 12.0 0.00 0.00 0.00 63 1020.5
20260830174017 82 197 5.0 14.0 0.00 0.00 0.00 63 1020.5
20260830173518 82 250 6.0 14.0 0.00 0.00 0.00 63 1020.6
20260830173018 82 237 5.0 12.0 0.00 0.00 0.00 63 1020.7
20260830172515 82 317 4.0 12.0 0.00 0.00 0.00 62 1020.8
20260830172017 83 209 4.0 10.0 0.00 0.00 0.00 62 1020.8
20260830171517 82 263 4.0 10.0 0.00 0.00 0.00 62 1020.9
20260830171013 82 235 5.0 10.0 0.00 0.00 0.00 63 1021.0
20260830170513 82 277 5.0 9.0 0.00 0.00 0.00 62 1021.0
20260830170014 82 245 3.0 11.0 0.00 0.00 0.00 63 1021.1
20260830165515 82 279 5.0 11.0 0.00 0.00 0.00 63 1021.1
20260830165016 82 280 5.0 12.0 0.00 0.00 0.00 65 1021.1
20260830164515 82 220 4.0 13.0 0.00 0.00 0.00 65 1021.2
20260830164011 82 211 5.0 12.0 0.00 0.00 0.00 65 1021.1
20260830163510 82 222 5.0 10.0 0.00 0.00 0.00 63 1021.1
20260830163010 82 202 2.0 10.0 0.00 0.00 0.00 67 1021.1
20260830162511 81 234 6.0 10.0 0.00 0.00 0.00 65 1021.1
20260830162007 81 234 6.0 10.0 0.00 0.00 0.00 66 1021.1
20260830161509 81 239 5.0 14.0 0.00 0.00 0.00 67 1021.0
20260830161006 81 248 5.0 14.0 0.00 0.00 0.00 68 1021.0
20260830160506 81 293 6.0 14.0 0.00 0.00 0.00 68 1020.9
20260830160010 81 267 5.0 11.0 0.00 0.00 0.00 68 1021.0
20260830155503 81 228 5.0 12.0 0.00 0.00 0.00 70 1021.0
20260830155003 80 324 4.0 12.0 0.00 0.00 0.00 71 1021.1
20260830154502 80 261 6.0 11.0 0.00 0.00 0.00 70 1021.2
20260830154002 80 230 4.0 12.0 0.00 0.00 0.00 72 1021.2
20260830153600 80 248 5.0 12.0 0.00 0.00 0.00 71 1021.3
20260830153101 80 183 6.0 10.0 0.00 0.00 0.00 71 1021.3
20260830152559 80 231 5.0 11.0 0.00 0.00 0.00 72 1021.2
20260830152059 80 279 5.0 9.0 0.00 0.00 0.00 72 1021.3
20260830151558 80 234 4.0 13.0 0.00 0.00 0.00 72 1021.3
20260830151057 79 250 5.0 13.0 0.00 0.00 0.00 72 1021.3
20260830150558 79 263 5.0 10.0 0.00 0.00 0.00 72 1021.3
20260830150109 79 242 5.0 9.0 0.00 0.00 0.00 73 1021.4
20260830145557 79 240 5.0 11.0 0.00 0.00 0.00 73 1021.5
20260830145053 79 250 4.0 11.0 0.00 0.00 0.00 73 1021.5
20260830144554 78 231 5.0 9.0 0.00 0.00 0.00 73 1021.5
20260830144052 79 255 3.0 9.0 0.00 0.00 0.00 74 1021.6
20260830143552 79 285 3.0 9.0 0.00 0.00 0.00 74 1021.6
20260830143051 78 230 2.0 8.0 0.00 0.00 0.00 71 1021.6
20260830142551 78 202 4.0 9.0 0.00 0.00 0.00 72 1021.7
20260830142051 78 204 4.0 9.0 0.00 0.00 0.00 71 1021.7
20260830141550 78 249 4.0 8.0 0.00 0.00 0.00 71 1021.7
20260830141048 78 227 4.0 8.0 0.00 0.00 0.00 72 1021.8
20260830140546 78 229 1.0 8.0 0.00 0.00 0.00 73 1021.9
20260830140047 77 250 4.0 8.0 0.00 0.00 0.00 76 1021.9
20260830135545 77 220 4.0 8.0 0.00 0.00 0.00 75 1022.0
20260830135044 77 208 4.0 8.0 0.00 0.00 0.00 77 1022.1
20260830134545 76 240 4.0 8.0 0.00 0.00 0.00 77 1022.1
20260830134042 76 225 3.0 8.0 0.00 0.00 0.00 77 1022.1
20260830133540 76 218 4.0 9.0 0.00 0.00 0.00 76 1022.1
20260830133040 76 219 4.0 9.0 0.00 0.00 0.00 77 1022.2
20260830132540 76 211 4.0 10.0 0.00 0.00 0.00 77 1022.2
20260830132039 76 202 2.0 8.0 0.00 0.00 0.00 76 1022.3
20260830131547 76 240 3.0 8.0 0.00 0.00 0.00 78 1022.4
20260830131038 75 214 3.0 6.0 0.00 0.00 0.00 78 1022.4
20260830130536 75 263 2.0 6.0 0.00 0.00 0.00 80 1022.5
20260830130037 75 202 3.0 6.0 0.00 0.00 0.00 81 1022.6
20260830125533 74 209 3.0 6.0 0.00 0.00 0.00 81 1022.6
20260830125033 74 200 1.0 6.0 0.00 0.00 0.00 84 1022.6
20260830124530 73 220 2.0 5.0 0.00 0.00 0.00 84 1022.6
20260830124033 72 198 2.0 4.0 0.00 0.00 0.00 86 1022.6
20260830123527 72 213 2.0 4.0 0.00 0.00 0.00 89 1022.7
20260830123026 71 207 1.0 4.0 0.00 0.00 0.00 91 1022.7
20260830122525 70 222 0.0 3.0 0.00 0.00 0.00 93 1022.8
20260830122022 69 201 1.0 3.0 0.00 0.00 0.00 94 1022.8
20260830121523 69 213 1.0 3.0 0.00 0.00 0.00 95 1022.8
20260830121021 69 237 0.0 1.0 0.00 0.00 0.00 95 1022.8
20260830120522 68 237 0.0 0.0 0.00 0.00 0.00 95 1022.8
20260830120017 67 184 0.0 0.0 0.00 0.00 0.00 95 1022.8
20260830115516 66 143 0.0 0.0 0.00 0.00 0.00 95 1022.8
20260830115016 65 143 0.0 0.0 0.00 0.00 0.00 95 1022.8
20260830114514 65 143 0.0 1.0 0.00 0.00 0.00 95 1022.7
20260830114016 65 143 0.0 1.0 0.00 0.00 0.00 95 1022.7
20260830113511 64 143 0.0 1.0 0.00 0.00 0.00 95 1022.7